When you browse on this site, cookies collect data to enhance your experience and personalize the content and advertising you see.
Visit our Privacy Policy to learn more. By continuing to use the site, you agree to this use of cookies and data.
  • în România
  • Lista ţărilor
  • Pe 7 zile
  • Temperatura apei
  • Meteo pe hartă
  • Widget-uri
  • user-avatar
    Intrare

    Meteo pe oră la Kipungo

    Astăzi, 24 August, Sâmbătă

    Timp Temperatura Precipitaţii Vânt Presiune Umiditate
    00:00 +15°C° 0 mm 2 m/s 655 mmHg 28%
    01:00 +13°C° 0 mm 1 m/s 655 mmHg 31%
    02:00 +12°C° 0 mm 1 m/s 655 mmHg 33%
    03:00 +11°C° 0 mm 1 m/s 654 mmHg 34%
    04:00 +10°C° 0 mm 1 m/s 654 mmHg 36%
    05:00 +11°C° 0 mm 1 m/s 654 mmHg 36%
    06:00 +12°C° 0 mm 1 m/s 655 mmHg 36%
    07:00 +11°C° 0 mm 0 m/s 656 mmHg 36%
    08:00 +16°C° 0 mm 2 m/s 657 mmHg 30%
    09:00 +20°C° 0 mm 3 m/s 657 mmHg 23%
    10:00 +26°C° 0 mm 4 m/s 658 mmHg 16%
    11:00 +27°C° 0 mm 4 m/s 658 mmHg 14%
    12:00 +29°C° 0 mm 3 m/s 657 mmHg 12%
    13:00 +31°C° 0 mm 3 m/s 657 mmHg 10%
    14:00 +31°C° 0 mm 3 m/s 656 mmHg 9%
    15:00 +31°C° 0 mm 3 m/s 656 mmHg 9%
    16:00 +31°C° 0 mm 3 m/s 655 mmHg 9%
    17:00 +28°C° 0 mm 3 m/s 655 mmHg 11%
    18:00 +24°C° 0 mm 2 m/s 655 mmHg 14%
    19:00 +21°C° 0 mm 1 m/s 654 mmHg 16%
    20:00 +19°C° 0 mm 2 m/s 654 mmHg 17%
    21:00 +18°C° 0 mm 2 m/s 655 mmHg 18%
    22:00 +17°C° 0 mm 2 m/s 655 mmHg 19%
    23:00 +15°C° 0 mm 2 m/s 654 mmHg 21%

    Mâine, 25 August, Duminică

    Timp Temperatura Precipitaţii Vânt Presiune Umiditate
    00:00 +14°C° 0 mm 1 m/s 654 mmHg 22%
    01:00 +13°C° 0 mm 1 m/s 653 mmHg 24%
    02:00 +12°C° 0 mm 1 m/s 653 mmHg 26%
    03:00 +11°C° 0 mm 1 m/s 653 mmHg 27%
    04:00 +11°C° 0 mm 1 m/s 653 mmHg 29%
    05:00 +11°C° 0 mm 1 m/s 653 mmHg 29%
    06:00 +12°C° 0 mm 1 m/s 654 mmHg 28%
    07:00 +12°C° 0 mm 1 m/s 655 mmHg 28%
    08:00 +17°C° 0 mm 2 m/s 655 mmHg 23%
    09:00 +21°C° 0 mm 3 m/s 656 mmHg 17%
    10:00 +27°C° 0 mm 3 m/s 657 mmHg 12%
    11:00 +29°C° 0 mm 3 m/s 657 mmHg 10%
    12:00 +31°C° 0 mm 2 m/s 656 mmHg 9%
    13:00 +35°C° 0 mm 2 m/s 656 mmHg 7%
    14:00 +34°C° 0 mm 1 m/s 656 mmHg 7%
    15:00 +33°C° 0 mm 1 m/s 655 mmHg 7%
    16:00 +33°C° 0 mm 1 m/s 655 mmHg 6%
    17:00 +29°C° 0 mm 1 m/s 654 mmHg 9%
    18:00 +25°C° 0 mm 1 m/s 654 mmHg 11%
    19:00 +21°C° 0 mm 1 m/s 653 mmHg 13%
    20:00 +20°C° 0 mm 1 m/s 654 mmHg 15%
    21:00 +18°C° 0 mm 2 m/s 654 mmHg 16%
    22:00 +17°C° 0 mm 2 m/s 654 mmHg 17%
    23:00 +16°C° 0 mm 2 m/s 654 mmHg 23%

    Poimâine, 26 August, Luni

    Timp Temperatura Precipitaţii Vânt Presiune Umiditate
    00:00 +15°C° 0 mm 2 m/s 654 mmHg 28%
    01:00 +14°C° 0 mm 1 m/s 653 mmHg 34%
    02:00 +13°C° 0 mm 1 m/s 653 mmHg 36%
    03:00 +13°C° 0 mm 1 m/s 653 mmHg 39%
    04:00 +13°C° 0 mm 1 m/s 653 mmHg 42%
    05:00 +13°C° 0 mm 1 m/s 654 mmHg 37%
    06:00 +14°C° 0 mm 1 m/s 654 mmHg 33%
    07:00 +14°C° 0 mm 1 m/s 655 mmHg 28%
    08:00 +18°C° 0 mm 2 m/s 656 mmHg 22%
    09:00 +24°C° 0 mm 3 m/s 657 mmHg 16%
    10:00 +28°C° 0 mm 3 m/s 657 mmHg 10%
    11:00 +31°C° 0 mm 3 m/s 657 mmHg 9%
    12:00 +34°C° 0 mm 2 m/s 657 mmHg 8%
    13:00 +36°C° 0 mm 2 m/s 657 mmHg 7%
    14:00 +35°C° 0 mm 1 m/s 656 mmHg 7%
    15:00 +35°C° 0 mm 1 m/s 656 mmHg 7%
    16:00 +33°C° 0 mm 0 m/s 655 mmHg 7%
    17:00 +31°C° 0 mm 1 m/s 655 mmHg 8%
    18:00 +28°C° 0 mm 1 m/s 655 mmHg 10%
    19:00 +24°C° 0 mm 2 m/s 655 mmHg 12%
    20:00 +21°C° 0 mm 2 m/s 655 mmHg 24%
    21:00 +19°C° 0 mm 2 m/s 655 mmHg 35%
    22:00 +17°C° 0 mm 2 m/s 655 mmHg 47%
    23:00 +16°C° 0 mm 2 m/s 655 mmHg 53%

    27 August, Marţi

    Timp Temperatura Precipitaţii Vânt Presiune Umiditate
    00:00 +15°C° 0 mm 2 m/s 654 mmHg 58%
    01:00 +14°C° 0 mm 2 m/s 654 mmHg 64%
    02:00 +14°C° 0 mm 1 m/s 654 mmHg 65%
    03:00 +13°C° 0 mm 1 m/s 654 mmHg 65%
    04:00 +12°C° 0 mm 1 m/s 653 mmHg 66%
    05:00 +13°C° 0 mm 1 m/s 654 mmHg 59%
    06:00 +14°C° 0 mm 1 m/s 654 mmHg 53%
    07:00 +14°C° 0 mm 1 m/s 655 mmHg 46%
    08:00 +19°C° 0 mm 2 m/s 656 mmHg 34%
    09:00 +25°C° 0 mm 2 m/s 657 mmHg 22%
    10:00 +29°C° 0 mm 3 m/s 658 mmHg 10%
    11:00 +31°C° 0 mm 3 m/s 658 mmHg 9%
    12:00 +34°C° 0 mm 2 m/s 657 mmHg 8%
    13:00 +36°C° 0 mm 2 m/s 656 mmHg 6%
    14:00 +36°C° 0 mm 2 m/s 656 mmHg 6%
    15:00 +35°C° 0 mm 1 m/s 656 mmHg 6%
    16:00 +35°C° 0 mm 1 m/s 655 mmHg 6%
    17:00 +31°C° 0 mm 1 m/s 655 mmHg 9%
    18:00 +27°C° 0 mm 1 m/s 654 mmHg 11%
    19:00 +24°C° 0 mm 1 m/s 654 mmHg 13%
    20:00 +22°C° 0 mm 1 m/s 654 mmHg 22%
    21:00 +19°C° 0 mm 2 m/s 654 mmHg 32%
    22:00 +17°C° 0 mm 2 m/s 654 mmHg 42%
    23:00 +16°C° 0 mm 2 m/s 654 mmHg 48%

    28 August, Miercuri

    Timp Temperatura Precipitaţii Vânt Presiune Umiditate
    00:00 +15°C° 0 mm 2 m/s 653 mmHg 54%
    01:00 +14°C° 0 mm 1 m/s 653 mmHg 60%
    02:00 +14°C° 0 mm 1 m/s 653 mmHg 60%
    03:00 +14°C° 0 mm 1 m/s 653 mmHg 59%
    04:00 +13°C° 0 mm 1 m/s 653 mmHg 59%
    05:00 +14°C° 0 mm 1 m/s 653 mmHg 57%
    06:00 +14°C° 0 mm 1 m/s 654 mmHg 55%
    07:00 +15°C° 0 mm 1 m/s 654 mmHg 53%
    08:00 +21°C° 0 mm 1 m/s 655 mmHg 39%
    09:00 +26°C° 0 mm 2 m/s 656 mmHg 25%
    10:00 +30°C° 0 mm 2 m/s 657 mmHg 11%
    11:00 +32°C° 0 mm 2 m/s 657 mmHg 10%
    12:00 +35°C° 0 mm 2 m/s 656 mmHg 9%
    13:00 +37°C° 0 mm 2 m/s 656 mmHg 8%
    14:00 +36°C° 0 mm 1 m/s 655 mmHg 8%
    15:00 +36°C° 0 mm 1 m/s 655 mmHg 8%
    16:00 +34°C° 0 mm 0 m/s 654 mmHg 9%
    17:00 +30°C° 0 mm 0 m/s 654 mmHg 12%
    18:00 +28°C° 0 mm 1 m/s 653 mmHg 14%
    19:00 +24°C° 0 mm 1 m/s 653 mmHg 17%
    20:00 +23°C° 0 mm 1 m/s 653 mmHg 25%
    21:00 +20°C° 0 mm 2 m/s 653 mmHg 33%
    22:00 +19°C° 0 mm 3 m/s 653 mmHg 41%
    23:00 +18°C° 0 mm 2 m/s 653 mmHg 43%

    29 August, Joi

    Timp Temperatura Precipitaţii Vânt Presiune Umiditate
    00:00 +16°C° 0 mm 1 m/s 653 mmHg 46%
    01:00 +15°C° 0 mm 1 m/s 653 mmHg 48%
    02:00 +15°C° 0 mm 1 m/s 652 mmHg 48%
    03:00 +14°C° 0 mm 1 m/s 652 mmHg 47%
    04:00 +13°C° 0 mm 1 m/s 652 mmHg 47%
    05:00 +14°C° 0 mm 1 m/s 653 mmHg 43%
    06:00 +15°C° 0 mm 1 m/s 653 mmHg 40%
    07:00 +15°C° 0 mm 1 m/s 654 mmHg 36%
    08:00 +21°C° 0 mm 1 m/s 655 mmHg 28%
    09:00 +26°C° 0 mm 2 m/s 656 mmHg 19%
    10:00 +30°C° 0 mm 2 m/s 657 mmHg 10%
    11:00 +34°C° 0 mm 1 m/s 657 mmHg 9%
    12:00 +37°C° 0 mm 1 m/s 657 mmHg 8%
    13:00 +38°C° 0 mm 0 m/s 657 mmHg 7%
    14:00 +40°C° 0 mm 1 m/s 656 mmHg 8%
    15:00 +37°C° 0 mm 1 m/s 655 mmHg 9%
    16:00 +36°C° 0 mm 1 m/s 654 mmHg 10%
    17:00 +32°C° 0 mm 1 m/s 654 mmHg 13%
    18:00 +28°C° 0 mm 2 m/s 653 mmHg 16%
    19:00 +25°C° 0 mm 2 m/s 653 mmHg 19%
    20:00 +23°C° 0 mm 2 m/s 653 mmHg 24%
    21:00 +20°C° 0 mm 2 m/s 653 mmHg 30%
    22:00 +18°C° 0 mm 2 m/s 653 mmHg 36%
    23:00 +17°C° 0 mm 2 m/s 653 mmHg 39%
    Arată mai mult